This demonstration page uses our WeatherBlox Daily Observations layout. Learn more.

Left ArrowRight Arrow

39.01783, -85.05884

Hourly Observations for March 8, 2018

Temp ( °F °C ) Dew Point ( °F °C ) Humidity (%) Winds ( mph kmh ) Pressure ( in mb ) Visibility ( mi km ) Precip ( " mm )
12:52 am 00:52 Cloudy 31 -0.6 24 -4.4 76 76 W 7 11 29.99 1016 10 16 N/A
1:52 am 01:52 Cloudy 30 -1.1 24 -4.4 79 79 WSW 5 7 29.97 1015 10 16 N/A
2:52 am 02:52 Cloudy with Light Snow 31 -0.6 24 -4.4 76 76 W 16 26 29.95 1014 7 11 N/A
3:24 am 03:24 Windy with Snow Likely 31 -0.6 25 -3.9 79 79 WNW 21 33 30.00 1016 2 3 N/A
3:28 am 03:28 Cloudy with Light Snow 30 -1.1 24 -4.4 79 79 WNW 18 30 30.00 1016 6 10 N/A
3:52 am 03:52 Cloudy with Light Snow 29 -1.7 23 -5 78 78 WNW 13 20 29.95 1014 9 14 N/A
4:52 am 04:52 Cloudy 28 -2.2 24 -4.4 85 85 W 8 13 29.96 1014 10 16 N/A
5:52 am 05:52 Cloudy 28 -2.2 24 -4.4 85 85 W 6 9 29.96 1014 10 16 N/A
6:45 am 06:45 Cloudy with Light Snow 29 -1.7 24 -4.4 82 82 WNW 15 24 30.00 1016 1 2 N/A
6:49 am 06:49 Windy with Snow Likely 28 -2 25 -4 86 86 NW 21 33 30.00 1016 1 1 N/A
6:52 am 06:52 Cloudy with Snow 27 -2.8 25 -3.9 92 92 WNW 20 31 29.97 1015 1 1 N/A
7:11 am 07:11 Mostly Cloudy with Light Snow 26 -3.3 24 -4.4 92 92 WNW 12 19 30.03 1017 5 8 N/A
7:19 am 07:19 Mostly Cloudy with Light Snow 26 -3.3 24 -4.4 92 92 WNW 12 19 30.03 1017 8 13 N/A
7:52 am 07:52 Partly Cloudy 25 -3.9 23 -5 92 92 W 8 13 29.99 1016 10 16 0.01 0.25
8:52 am 08:52 Mostly Cloudy 28 -2.2 21 -6.1 75 75 WNW 16 26 30.00 1016 10 16 N/A
9:10 am 09:10 Mostly Cloudy 28 -2.2 22 -5.6 78 78 W 15 24 30.03 1017 10 16 N/A
9:12 am 09:12 Mostly Cloudy 28 -2.2 22 -5.6 78 78 WNW 14 22 30.03 1017 10 16 N/A
9:29 am 09:29 Mostly Cloudy 29 -1.7 19 -7.2 66 66 WNW 18 30 30.06 1018 10 16 N/A
9:52 am 09:52 Mostly Cloudy 30 -1.1 20 -6.7 66 66 NW 16 26 30.01 1016 10 16 N/A
10:52 am 10:52 Cloudy with Light Snow 29 -1.7 18 -7.8 63 63 W 15 24 30.01 1016 8 13 N/A
11:52 am 11:52 Cloudy 30 -1.1 19 -7.2 64 64 WNW 15 24 30.01 1016 10 16 N/A
12:52 pm 12:52 Mostly Cloudy 30 -1.1 18 -7.8 61 61 WNW 14 22 30.01 1016 10 16 N/A
1:52 pm 13:52 Cloudy 30 -1.1 17 -8.3 58 58 WNW 20 31 30.01 1016 10 16 N/A
2:52 pm 14:52 Cloudy 30 -1.1 16 -8.9 56 56 WNW 20 31 30.01 1016 10 16 N/A
3:52 pm 15:52 Cloudy 30 -1.1 16 -8.9 56 56 WNW 17 28 30.03 1017 10 16 N/A
4:52 pm 16:52 Cloudy 30 -1.1 17 -8.3 58 58 WNW 15 24 30.04 1017 10 16 N/A
5:52 pm 17:52 Cloudy 29 -1.7 16 -8.9 58 58 W 14 22 30.05 1018 10 16 N/A
6:52 pm 18:52 Cloudy 29 -1.7 16 -8.9 58 58 W 16 26 30.07 1018 10 16 N/A
7:52 pm 19:52 Cloudy 28 -2.2 18 -7.8 66 66 WNW 12 19 30.07 1018 10 16 N/A
8:52 pm 20:52 Cloudy 28 -2.2 20 -6.7 72 72 W 8 13 30.08 1019 10 16 N/A
9:52 pm 21:52 Cloudy 28 -2.2 19 -7.2 69 69 W 10 17 30.07 1018 10 16 N/A
10:52 pm 22:52 Cloudy 28 -2.2 18 -7.8 66 66 W 9 15 30.08 1019 10 16 N/A
11:52 pm 23:52 Cloudy 28 -2.2 17 -8.3 63 63 W 7 11 30.07 1018 10 16 N/A

Powered by AerisWeather